sat.trackr.live / text

‹ back to catalog

STARLINK-5671

NORAD 55339 · 2023-013J

PAYLOAD ACTIVE UNKNOWN

§ Identity

Operator
Country
US
Launch date
2023-01-26
Launch site
AFETR
Launch vehicle
Mass (kg)
RCS (m²)

Purposes: comms

External: N2YO · Heavens-Above · Gunter

§ Orbital elements

Epoch: 2026-09-19T13:52:19.909344Z

Period
94.27 min
Inclination
43.0007°
Eccentricity
0.0000667
Mean motion
15.27579380 rev/d
Perigee alt
482.6 km
Apogee alt
483.5 km
Semi-major
6,861.2 km
B*
-3.1558e-5
RAAN
292.0582°
Arg perigee
259.9010°
Mean anomaly
100.1766°
Rev number
20,128

§ Raw data

STARLINK-56711 55339U 23013J   26262.57800821 -.00001130  00000+0 -31558-4 0  99952 55339  43.0007 292.0582 0000667 259.9010 100.1766 15.27579380201285

JSON: /api/v1/satellites/55339 · /tle

For live sub-satellite position, see the globe view (requires WebGL).

§ Visibility from observer

Set your observer location to see the next 7 days of passes ≥ 10°. The values pass through the URL so the page stays shareable.

No JS? Fill the form by hand. The geolocation button needs JavaScript.